Theta_e
298 297 297 296 295 295 296 295 296 296 294 295 293 293 291 290 287 286 286 288 288 291 293 291 294 296 296 297 298 298 298 300 302 300 299 299 299 302 304 303 303 303 303 304 304 305 305 305 305 308 310 313 314 314 316 317 319 319 320 323 326 326 323 320 319 322 325 329 329 323 322 321 320 319
298 297 296 295 294 295 294 295 295 295 294 293 293 292 292 292 289 288 286 287 290 290 293 293 292 295 296 297 298 298 297 302 301 299 298 298 299 303 303 302 301 302 303 303 301 302 302 303 305 307 309 311 310 310 311 312 314 317 321 324 326 324 322 319 319 320 321 322 323 322 321 319 318 318
297 295 295 294 294 294 294 294 294 294 294 293 293 292 292 292 291 289 289 286 290 292 291 293 295 295 295 297 297 297 297 300 300 298 298 298 302 303 302 302 302 302 302 301 303 303 302 301 303 305 307 309 308 308 309 309 312 318 322 321 321 322 322 321 319 322 324 325 325 324 321 320 319 320
296 295 294 294 294 294 293 293 293 292 293 293 292 292 292 291 291 292 290 288 288 292 292 293 294 295 295 296 295 295 296 298 301 298 298 298 302 299 298 301 302 302 301 301 301 301 301 300 302 304 306 306 306 307 307 307 309 312 316 316 317 318 320 321 319 322 325 325 325 325 322 320 319 319
295 295 294 294 294 294 292 292 292 292 292 292 291 293 291 291 291 291 290 288 289 291 293 293 294 295 295 294 295 294 295 296 297 299 298 298 297 297 297 298 300 301 301 301 300 300 300 300 303 304 304 304 305 305 304 304 305 306 309 313 316 316 319 320 318 320 324 326 324 324 320 318 318 319
296 294 293 294 294 293 292 291 291 291 290 291 290 290 291 290 291 292 290 289 289 288 291 292 294 293 295 292 295 294 294 295 297 296 296 297 297 297 297 297 297 300 301 300 300 300 300 300 301 300 300 300 301 302 302 302 303 305 308 307 311 315 317 320 318 318 321 323 321 320 318 318 318 318
294 293 294 293 293 293 290 290 290 290 290 291 290 290 291 290 290 291 292 290 289 289 289 292 291 292 293 292 293 294 295 296 296 295 295 296 297 298 297 297 297 299 299 299 299 300 300 300 300 299 299 299 300 301 301 302 304 304 305 305 307 312 315 317 318 317 322 323 320 319 317 318 318 317
294 293 292 292 292 292 290 289 289 289 289 289 290 290 290 291 290 291 292 292 290 290 289 290 290 292 291 292 294 295 295 295 295 295 295 296 296 296 297 296 296 298 300 300 299 300 300 299 299 299 299 299 300 301 301 303 303 304 303 304 306 308 311 313 313 314 317 320 318 317 316 318 319 320
294 294 292 292 292 290 289 289 288 289 289 290 290 289 289 290 291 292 291 291 291 290 289 289 291 292 292 293 293 294 293 293 294 294 294 295 295 295 296 297 297 299 300 299 299 299 298 299 299 299 299 299 300 300 302 301 302 302 303 304 304 306 308 312 314 314 315 315 315 317 317 317 320 322
295 293 292 292 291 290 289 289 289 288 288 289 289 289 289 289 290 290 290 291 291 290 290 289 289 291 290 290 291 293 293 292 292 293 294 295 295 295 294 295 297 298 297 296 296 297 297 298 298 299 299 299 299 301 300 300 300 301 302 303 304 305 306 308 311 313 312 314 314 316 316 315 319 321
293 294 293 292 291 290 289 289 289 288 289 290 289 291 289 289 289 289 289 290 290 289 289 289 289 289 291 290 289 292 293 293 293 291 292 292 294 295 294 294 295 296 296 297 297 297 297 298 299 298 298 299 301 300 299 299 300 301 301 301 301 301 303 305 308 312 312 313 313 312 311 310 313 318
293 293 293 292 292 290 290 290 289 289 289 289 290 289 289 289 289 288 289 289 289 289 288 288 288 289 289 290 291 292 292 291 292 293 292 290 291 292 293 294 293 295 295 294 295 297 297 297 297 298 299 299 299 299 299 300 301 302 302 301 303 303 303 304 306 309 311 312 311 309 308 309 311 312
293 293 293 292 292 297 298 299 297 297 297 292 290 289 289 290 289 288 288 289 288 288 288 288 289 288 288 289 289 289 289 290 290 292 293 292 292 293 292 293 295 295 294 294 294 294 295 294 295 295 295 295 297 298 300 300 300 301 302 302 303 303 304 304 306 308 309 311 311 309 308 309 310 309
293 293 293 298 299 299 300 299 297 295 295 296 295 292 290 290 289 288 288 288 288 288 287 287 287 287 287 288 289 289 290 292 293 292 292 290 291 292 291 292 294 296 295 293 292 293 295 294 294 294 294 296 297 296 297 297 299 300 300 301 302 302 302 303 305 306 308 309 310 309 307 307 308 308
293 292 292 292 297 299 300 297 296 295 294 293 293 294 294 295 292 289 288 288 288 288 288 288 288 287 287 288 290 290 291 292 292 291 291 290 290 289 288 287 291 296 294 293 292 292 294 294 293 293 294 295 295 296 296 298 299 299 299 300 301 302 303 303 303 304 306 307 308 307 306 306 307 308
292 291 292 292 293 294 294 295 293 293 294 293 293 293 293 293 293 293 291 290 288 288 287 287 288 288 287 288 290 290 291 291 291 291 291 290 290 289 289 289 288 293 295 292 291 291 294 294 293 292 293 295 295 296 297 297 298 298 299 300 300 300 302 302 303 303 304 305 306 306 306 306 306 306
291 291 292 291 292 292 299 298 291 289 290 293 293 293 294 293 293 291 290 291 292 290 289 288 288 288 289 289 290 292 292 292 290 290 290 290 290 290 289 289 290 292 294 292 290 289 292 293 292 291 293 294 295 295 297 298 298 299 299 299 300 300 300 302 303 303 303 305 305 306 306 306 306 306
290 290 290 290 291 290 290 290 290 290 289 290 290 290 289 289 291 292 292 291 292 293 291 289 288 289 290 290 291 293 293 291 290 289 289 290 290 290 290 291 292 293 294 291 290 289 290 292 292 291 292 294 295 296 297 297 298 299 299 299 300 300 300 301 301 302 302 303 304 304 306 306 305 306
290 289 290 289 289 289 290 292 293 291 290 290 290 289 289 289 289 289 289 290 291 292 291 290 289 290 291 292 292 293 293 292 292 292 291 291 291 291 292 292 292 293 294 293 292 287 290 292 291 291 292 294 295 296 297 298 298 299 299 299 299 300 300 300 300 300 301 302 303 303 303 304 304 304
290 290 290 289 289 290 290 293 293 293 292 289 289 288 288 288 288 289 293 293 293 293 291 291 291 291 292 293 292 293 292 293 293 294 294 293 292 290 289 288 289 289 292 293 291 289 289 292 290 291 293 294 295 297 298 299 300 300 300 300 300 300 300 300 299 300 300 301 302 303 302 302 303 303
290 290 292 291 291 292 290 293 291 291 292 289 288 287 287 288 287 288 290 292 292 292 292 291 291 291 291 291 291 292 292 293 293 292 291 289 290 288 286 287 287 288 290 292 292 290 288 291 291 291 292 293 293 294 295 297 298 299 299 300 300 300 300 300 299 299 300 300 301 302 302 302 302 303
288 290 298 299 292 291 291 292 290 290 291 288 287 287 286 286 286 287 289 290 291 292 292 292 291 291 291 291 292 292 293 292 293 292 289 290 289 286 286 285 286 288 289 291 293 289 288 290 291 290 292 293 294 295 296 297 299 299 299 299 300 300 300 300 299 299 300 300 300 301 302 302 302 306
289 289 292 295 295 293 292 290 290 290 290 288 287 287 286 286 286 287 288 288 288 289 289 289 289 290 291 293 292 293 293 293 295 294 292 292 289 286 286 286 286 285 287 292 295 290 289 290 291 292 291 290 294 296 297 299 302 305 306 307 306 302 300 299 298 299 300 300 301 301 302 302 302 307
288 288 289 292 291 290 290 290 289 289 290 289 288 287 286 286 286 288 288 290 290 288 288 288 289 289 290 291 292 292 292 293 295 293 293 292 291 288 287 286 286 284 285 290 293 289 289 290 289 292 291 289 287 292 296 298 300 301 302 305 307 304 301 300 299 298 299 300 300 301 301 302 303 308
286 287 288 289 291 290 290 289 289 290 290 290 290 288 287 287 289 290 288 289 292 288 288 288 288 288 289 290 290 291 292 293 293 294 293 293 292 290 287 286 286 285 288 290 292 290 288 290 289 291 292 293 293 293 295 297 299 300 302 304 306 307 304 303 301 302 299 299 300 300 301 301 302 307
287 287 287 288 290 290 289 289 290 290 290 290 291 289 289 289 289 290 290 288 288 287 287 287 287 287 287 288 289 290 291 292 293 293 293 293 292 291 290 288 286 285 286 290 291 290 289 288 290 290 291 291 292 294 293 295 299 301 303 305 307 307 304 303 303 303 302 302 302 301 302 300 301 304
287 287 287 289 292 289 289 289 290 290 290 291 289 289 289 289 289 290 288 288 287 286 286 286 286 286 287 287 288 289 290 291 292 293 293 293 292 291 291 291 290 289 290 291 293 293 292 291 293 292 291 293 292 293 295 295 297 301 302 303 306 306 305 304 303 303 303 303 303 300 300 300 300 302
286 287 287 289 289 289 289 289 289 289 290 289 289 289 289 289 290 288 287 286 286 286 285 285 285 285 286 287 287 289 290 291 292 293 293 292 292 291 290 290 291 291 291 292 293 293 293 291 292 295 295 294 293 293 293 298 299 301 302 302 304 305 305 305 304 303 303 304 303 302 302 302 303 304
288 289 289 289 289 289 289 289 289 289 290 289 289 289 289 291 285 286 285 285 285 284 284 285 285 285 286 287 288 289 291 292 293 293 292 292 292 291 291 290 291 291 292 291 292 292 292 292 292 293 294 295 295 296 297 297 299 300 302 301 301 302 304 305 304 303 302 303 303 302 302 303 303 304
289 289 289 289 289 289 290 289 287 286 289 289 289 289 290 286 285 285 285 285 285 284 284 285 285 285 286 287 288 290 291 291 291 292 291 290 289 289 288 288 289 290 290 291 291 291 291 293 292 292 292 294 297 297 299 299 299 302 300 301 301 300 302 304 304 303 302 302 302 302 304 304 304 304
288 289 290 288 288 288 289 288 288 288 289 287 287 286 285 285 285 285 285 285 284 285 284 285 285 286 287 288 288 288 289 290 291 292 291 289 288 288 288 287 287 287 289 290 291 291 291 293 291 291 293 294 291 292 294 297 298 299 300 301 301 299 299 303 302 302 303 303 303 303 303 304 304 303
288 288 288 288 287 286 286 285 285 285 286 285 285 285 284 285 285 287 289 289 285 285 285 285 285 286 286 286 286 287 288 289 291 292 291 289 288 288 287 286 286 286 287 288 290 290 291 292 292 290 289 288 287 288 292 292 291 294 298 299 299 300 301 302 301 301 303 303 302 301 302 303 303 304
287 286 285 285 285 284 284 283 283 284 284 284 285 285 285 284 284 284 284 284 284 284 284 284 284 285 285 285 286 286 287 288 289 291 290 290 289 289 288 286 286 285 285 286 287 288 289 291 293 292 290 289 288 288 287 286 288 291 296 298 299 299 300 301 301 301 302 302 301 301 301 303 304 305
283 282 281 282 282 283 282 281 281 283 282 282 283 284 285 284 283 284 284 284 284 284 284 284 284 284 284 284 285 285 286 287 288 290 289 289 289 288 287 286 286 286 286 286 286 287 288 289 290 293 293 291 290 289 287 285 285 287 294 296 297 297 298 300 300 301 302 301 300 299 300 301 303 304
280 279 281 283 282 281 281 279 282 282 282 281 281 283 283 283 283 283 283 284 283 283 283 284 284 284 284 284 284 284 285 286 287 289 289 290 289 288 287 286 286 286 286 286 285 286 287 287 288 288 289 289 288 289 291 289 285 285 291 292 292 293 294 296 298 300 300 300 300 297 297 298 299 301
283 281 280 282 282 281 280 281 279 280 281 281 281 281 282 283 282 282 283 283 283 283 283 283 283 284 284 284 284 284 285 285 286 287 287 288 288 287 288 287 286 287 287 286 286 287 287 287 286 285 284 284 284 283 284 290 289 286 287 288 290 290 292 293 293 293 295 295 296 296 292 292 295 297
283 283 282 281 283 281 279 281 281 282 282 281 283 281 282 282 282 282 283 283 283 283 283 283 283 284 284 284 284 284 284 285 285 286 287 287 287 287 287 286 286 287 286 287 287 286 287 286 286 285 284 283 281 281 282 286 288 289 287 287 288 289 289 290 290 289 290 292 292 292 292 292 292 294
283 283 283 283 282 282 281 281 281 280 283 281 281 281 283 281 281 282 282 282 283 282 283 282 283 283 284 284 283 283 284 285 285 285 286 287 286 286 286 286 286 287 287 287 287 287 287 286 285 285 284 282 281 281 281 284 284 286 289 287 286 287 289 288 287 287 287 289 289 290 291 289 290 292
283 284 284 283 283 281 282 282 282 282 282 281 281 281 282 282 281 281 282 282 282 282 282 282 283 283 283 283 283 283 283 283 284 284 285 286 286 286 286 286 286 287 287 286 287 287 287 285 285 285 285 283 281 282 283 283 282 285 287 289 287 286 287 288 287 288 288 288 289 290 290 291 291 290
285 284 284 283 283 283 282 282 281 281 282 282 281 281 280 281 281 280 281 281 282 282 282 282 283 283 283 283 283 283 283 283 283 283 284 285 286 286 286 286 286 286 286 286 285 286 286 285 285 285 285 285 285 286 284 285 286 287 286 287 288 287 286 287 287 287 287 288 289 288 288 289 287 289
284 285 285 284 284 282 282 282 282 281 282 282 281 283 281 280 280 281 280 281 280 281 282 282 282 282 282 282 283 282 282 283 283 283 283 284 285 286 286 286 286 286 286 285 285 285 285 286 287 287 288 287 288 288 285 284 282 284 284 285 287 288 288 288 286 286 286 288 288 287 287 286 286 287
284 284 285 285 284 285 282 283 282 281 281 281 281 282 280 280 279 285 281 280 280 281 281 282 282 282 282 282 282 282 282 282 282 283 283 283 283 284 286 286 285 285 285 285 285 286 288 289 288 288 288 287 286 284 282 282 282 283 284 285 286 287 288 288 288 288 287 286 287 287 286 286 287 286
285 285 285 285 284 284 283 284 282 282 283 281 281 280 279 279 278 279 277 279 279 279 280 280 281 281 282 282 282 282 282 282 282 282 282 283 283 283 284 284 285 285 285 285 286 287 287 288 288 287 287 286 285 285 282 283 283 283 283 284 285 286 286 287 287 287 287 287 287 286 286 286 286 283
285 285 285 286 284 284 284 282 282 281 282 282 281 278 277 278 278 279 276 276 277 278 278 279 280 281 281 282 282 282 282 282 282 282 282 282 282 283 283 284 285 285 285 285 286 286 287 287 287 287 286 285 285 284 283 284 283 284 284 284 285 285 285 286 286 286 287 286 287 287 287 286 286 286
285 285 285 285 284 283 283 283 282 282 281 280 281 279 277 277 277 277 276 276 276 277 277 278 279 281 281 281 281 281 282 283 283 282 282 282 283 283 283 283 284 285 285 284 284 285 286 286 287 287 286 286 286 285 285 285 284 284 284 284 284 284 284 285 284 284 284 284 285 286 286 286 286 286
Wind_Speed
8 8 8 6 5 3 3 3 4 4 3 3 3 4 5 5 5 8 9 10 11 11 11 10 9 10 10 10 9 11 11 14 18 12 11 11 10 15 21 21 19 19 20 21 22 18 20 24 23 23 23 22 21 21 20 21 19 21 25 27 26 25 24 22 23 25 27 28 28 25 24 24 22 21
7 7 6 4 5 3 4 5 4 4 5 5 5 5 4 4 5 6 8 9 7 9 11 9 11 12 11 9 9 8 11 17 19 13 12 12 11 19 21 19 18 19 19 20 20 20 23 24 24 23 22 20 20 21 21 19 20 21 27 28 29 26 25 23 24 24 25 26 24 24 25 23 22 23
7 6 5 3 4 4 4 4 5 5 6 6 5 5 4 5 3 4 5 9 5 6 9 10 11 11 11 11 10 10 9 13 19 14 13 12 18 25 14 18 18 18 19 18 20 23 23 22 22 22 19 20 22 23 25 24 22 21 25 27 28 27 23 24 24 27 26 26 25 26 24 23 23 23
5 5 4 3 3 3 4 5 6 6 5 5 5 5 5 4 3 3 5 7 10 6 7 9 10 11 12 11 12 12 10 11 16 12 12 14 19 12 12 14 17 18 18 18 19 21 22 21 21 22 22 23 24 25 26 25 22 21 18 21 24 24 27 29 24 25 29 27 27 26 25 24 23 24
4 4 3 3 4 3 5 5 5 5 5 4 4 4 4 5 5 4 5 7 9 6 5 7 8 10 11 11 11 12 12 13 12 11 10 12 12 12 10 11 15 15 17 19 19 20 20 20 22 23 23 25 25 24 23 22 21 20 18 18 23 25 25 26 26 26 28 27 26 25 26 24 24 25
3 3 3 4 4 4 4 4 4 4 4 4 5 4 5 5 6 6 5 6 8 11 8 8 7 8 8 9 9 12 13 12 13 13 11 9 9 10 11 11 10 15 18 19 19 19 19 19 20 22 22 22 22 22 21 21 21 19 18 17 21 24 25 25 25 24 25 25 26 25 25 26 26 26
3 4 4 3 3 2 3 3 3 3 3 3 4 5 4 5 6 6 5 6 8 10 10 8 9 8 9 9 11 11 10 11 11 13 12 10 9 9 10 11 10 15 18 20 19 19 19 18 19 20 21 22 22 22 20 20 19 17 16 16 19 21 24 27 26 26 28 28 26 27 27 27 27 26
3 4 4 1 1 1 3 3 3 3 3 3 3 4 5 4 6 6 5 6 7 8 10 9 9 9 10 9 10 10 9 10 11 11 13 12 11 11 10 11 12 15 21 21 21 19 19 19 19 19 21 21 21 21 19 16 16 16 16 16 17 21 24 27 27 27 28 29 29 27 25 24 26 28
4 4 3 2 1 1 3 3 4 3 4 4 4 5 5 5 6 6 6 7 7 8 10 11 8 9 9 9 10 10 11 10 9 10 12 12 12 12 11 11 11 15 20 19 18 18 18 19 19 18 19 21 21 21 16 17 17 16 16 17 16 18 22 26 28 29 30 28 28 28 27 28 29 28
4 4 3 3 2 1 1 2 3 4 4 5 5 5 6 6 6 6 7 7 8 8 9 10 11 8 10 10 8 10 10 11 12 10 10 11 11 12 13 10 9 8 8 9 11 13 14 16 18 17 18 20 22 17 17 20 20 19 17 18 17 17 21 25 27 28 28 28 28 30 29 28 28 30
4 4 4 3 2 1 0 1 3 4 5 4 6 5 6 6 6 7 7 8 8 8 9 9 9 10 8 8 12 10 9 10 10 12 13 12 11 10 10 12 10 8 11 12 15 15 15 17 15 15 18 19 17 18 21 22 21 19 18 17 17 18 20 23 25 26 28 29 28 28 29 28 29 30
4 4 3 3 2 2 2 2 3 4 4 4 6 7 5 6 7 7 8 8 8 9 9 9 11 9 10 10 9 10 10 10 9 8 11 14 13 15 13 11 12 13 10 12 9 9 10 10 13 15 16 18 20 21 21 20 19 20 19 18 17 17 18 21 24 26 28 29 28 30 31 30 30 29
2 3 3 2 4 3 4 5 5 6 6 4 5 8 6 7 7 8 7 8 8 8 8 10 9 10 10 10 11 12 11 12 13 14 12 13 13 13 15 15 12 10 12 12 10 9 7 9 10 10 10 11 16 15 18 17 21 20 17 16 14 15 17 19 23 25 28 30 30 29 28 28 27 27
1 2 2 1 2 4 7 8 8 8 10 10 8 8 7 8 7 8 8 9 9 9 10 10 11 12 12 12 12 12 12 12 13 14 14 15 13 13 16 15 8 10 10 11 12 10 6 8 10 8 10 9 10 10 10 11 14 16 17 17 15 15 16 17 21 25 26 29 30 29 29 27 28 28
2 2 1 1 4 5 6 6 9 9 11 12 13 14 14 12 9 8 9 9 9 10 10 10 11 11 13 13 12 12 13 13 14 14 14 14 14 14 15 16 10 3 7 12 12 14 5 5 10 10 9 10 10 9 11 15 19 19 18 18 17 15 15 17 18 22 25 25 29 28 28 30 30 29
2 3 1 2 3 4 4 5 5 7 11 13 14 15 15 15 15 13 9 10 10 10 10 11 11 12 12 13 12 13 14 15 15 14 14 14 14 16 15 13 16 12 9 12 14 17 11 6 9 12 10 9 10 12 15 19 19 20 20 19 18 17 16 17 18 19 22 24 27 29 30 30 30 29
2 2 1 2 4 5 8 7 5 5 7 11 15 15 14 13 15 16 17 14 10 9 10 10 12 12 13 14 13 13 16 16 17 17 15 14 14 13 15 13 15 14 11 13 13 16 15 6 10 11 11 10 10 11 14 19 20 20 20 19 18 17 17 17 18 19 21 24 25 28 30 31 32 31
3 3 1 2 5 5 6 6 6 5 6 9 10 10 9 8 11 14 15 15 16 12 9 10 12 14 12 13 15 16 16 17 16 17 17 17 17 16 17 17 18 16 10 13 12 15 15 8 10 12 11 9 10 10 14 18 19 20 20 19 19 18 17 17 18 19 21 24 25 24 29 31 31 31
1 2 3 3 4 5 7 7 9 7 8 10 9 9 8 8 9 9 10 10 9 9 9 10 11 13 13 13 15 16 15 16 15 14 17 19 19 18 15 14 12 13 9 12 9 12 14 7 9 11 11 10 10 9 12 17 19 20 20 20 20 19 18 17 18 19 21 23 25 26 26 29 30 30
3 3 4 4 6 6 7 11 15 14 10 8 8 9 8 8 8 8 9 14 13 12 11 11 12 12 15 17 17 16 17 16 15 14 14 15 15 15 14 14 12 12 8 9 10 11 13 9 9 11 10 9 10 9 9 13 17 19 20 20 20 19 18 18 18 19 21 23 25 26 27 28 32 33
3 3 3 4 5 6 7 13 16 16 13 7 8 8 8 8 7 9 9 12 15 16 17 19 20 21 21 21 20 22 24 18 18 16 15 15 14 13 14 14 12 12 8 7 8 11 15 11 8 11 10 9 10 11 11 11 14 19 20 21 21 20 19 19 18 19 21 23 25 26 27 27 29 36
3 4 9 8 4 6 8 14 17 16 10 7 7 7 8 10 10 10 9 9 10 14 16 18 19 20 20 20 20 20 21 21 18 15 15 17 13 14 16 19 14 13 9 9 9 10 13 10 7 9 10 9 8 10 11 11 12 16 15 19 21 21 20 19 19 19 21 23 24 26 28 29 25 20
5 6 7 9 8 6 10 16 16 17 11 6 7 6 7 9 10 10 11 11 12 12 12 12 13 13 15 14 13 15 21 21 18 14 15 14 13 15 15 14 14 15 6 3 3 8 11 8 9 7 9 9 9 8 9 10 8 5 6 7 10 16 18 18 18 20 21 23 24 26 26 26 24 15
6 5 6 8 10 11 13 15 16 16 15 7 7 6 7 9 11 10 10 11 12 12 12 13 13 14 13 13 13 14 15 15 15 15 14 13 13 14 17 14 15 14 11 7 7 10 12 9 11 7 7 8 8 3 3 6 7 8 7 7 7 9 14 17 16 19 20 22 24 24 26 28 27 16
4 7 7 7 10 13 15 15 16 15 15 12 7 7 7 7 10 12 9 13 15 11 12 12 12 12 12 13 13 13 13 13 13 14 13 13 12 13 13 13 12 11 11 11 10 9 9 7 10 8 7 6 9 11 10 7 8 7 8 8 8 5 6 7 6 8 13 20 22 24 25 26 29 22
6 6 6 7 10 14 15 15 14 15 14 14 7 9 13 15 15 11 9 9 9 10 10 11 11 12 12 13 13 13 13 14 15 14 13 13 13 12 12 12 12 13 11 12 13 10 11 10 9 9 9 8 10 9 11 10 8 7 7 6 7 5 7 6 7 7 7 8 10 16 19 25 27 29
6 6 6 7 12 15 15 13 14 14 13 9 8 13 14 14 15 12 8 9 9 10 10 11 12 13 13 14 14 14 15 16 16 15 14 14 14 13 13 13 12 12 12 12 12 11 10 10 7 9 11 9 10 9 8 9 7 3 6 4 2 4 4 5 7 7 7 8 9 16 18 23 27 29
5 6 7 8 14 13 14 13 13 13 11 8 12 13 14 13 11 8 8 8 9 9 10 11 12 13 13 13 14 15 15 15 16 16 15 13 14 13 13 13 12 11 11 10 10 9 8 9 9 9 11 11 11 11 9 6 7 6 5 2 0 2 5 5 5 5 6 7 7 9 10 11 15 18
4 8 11 12 12 12 12 13 11 9 9 12 11 12 13 11 7 8 8 8 9 10 11 11 12 12 13 13 14 14 14 15 14 14 14 13 12 13 12 10 9 9 8 9 9 10 9 10 10 8 8 9 11 9 7 8 6 7 5 2 1 1 4 5 6 7 7 7 8 10 12 12 13 13
10 11 11 13 13 11 10 8 6 5 6 9 11 12 11 7 7 7 8 8 9 9 10 11 12 12 12 13 14 14 13 13 14 15 15 15 15 14 15 14 12 9 10 12 11 11 11 9 9 9 8 6 8 9 6 6 7 6 3 6 3 1 3 5 5 6 7 8 8 9 10 12 14 15
9 11 10 8 8 7 9 7 6 6 7 7 8 7 7 7 7 7 7 8 9 9 10 10 11 12 12 12 13 14 14 14 14 14 15 13 13 14 13 11 11 14 13 13 12 12 10 8 11 10 5 2 5 5 5 4 4 6 2 2 3 1 3 4 4 5 6 7 7 7 7 9 10 12
6 6 8 8 6 7 7 7 6 6 6 5 5 7 7 7 6 7 9 9 7 8 8 9 10 11 13 13 13 13 13 13 13 14 15 14 14 14 14 14 16 14 14 14 14 15 13 9 9 11 11 10 10 8 4 7 10 9 5 5 5 4 3 4 4 4 5 6 6 6 7 8 10 10
6 6 6 7 8 6 7 6 6 6 6 7 7 7 7 7 7 7 7 8 9 9 9 10 11 11 12 13 13 13 14 14 14 13 14 15 15 15 13 14 13 14 14 14 15 15 13 12 5 5 12 14 13 14 12 12 11 9 7 8 6 6 4 3 3 5 6 6 6 6 7 7 8 10
4 4 4 6 4 6 6 6 5 6 6 6 7 8 7 7 7 7 7 7 8 9 9 9 10 11 11 12 13 13 14 14 14 14 14 14 14 14 14 14 14 12 11 11 13 13 14 13 10 5 1 5 14 20 18 14 14 12 9 9 8 7 6 4 4 3 5 4 7 6 6 6 6 7
0 3 5 6 6 4 4 4 4 4 4 6 6 7 7 7 8 8 7 8 8 8 8 9 9 10 11 12 12 12 13 13 14 14 13 12 13 14 13 12 12 13 14 15 14 13 13 14 12 9 7 4 8 14 24 23 14 12 10 11 10 9 8 7 6 6 4 4 4 5 5 4 5 4
6 2 3 6 6 5 4 4 4 3 4 5 5 5 6 8 7 7 8 8 7 7 8 9 9 10 10 11 12 12 13 13 13 13 14 14 14 15 14 14 14 13 12 12 13 13 13 14 13 13 14 14 16 17 18 23 25 13 12 9 10 10 9 8 9 9 8 6 5 5 4 5 4 4
6 6 3 4 6 5 3 4 3 4 3 4 5 4 5 6 7 7 7 7 7 7 8 8 9 10 10 10 11 11 12 12 12 13 14 14 13 13 14 15 15 14 14 14 13 13 13 13 13 14 14 16 15 12 11 10 23 28 15 10 10 9 8 7 10 10 8 7 8 7 5 5 5 5
4 5 6 5 6 6 4 3 3 3 4 4 4 5 5 6 6 7 6 7 8 7 8 8 8 9 10 10 11 12 12 11 11 12 13 13 13 14 13 14 14 14 13 13 14 14 13 13 14 13 13 13 13 12 11 12 14 19 29 16 9 8 8 8 10 8 9 9 10 8 8 9 7 7
4 5 6 6 7 4 2 3 2 3 4 4 4 4 5 5 6 6 6 7 7 7 7 8 8 8 9 10 10 10 10 12 13 12 12 12 13 13 13 13 13 13 13 14 14 13 13 14 14 13 12 11 11 7 6 9 12 10 22 34 16 10 10 7 7 7 8 10 11 12 11 11 15 19
6 4 6 5 7 6 4 3 2 2 3 4 3 3 3 4 6 6 6 6 7 7 7 7 8 8 9 9 9 10 10 11 11 11 11 11 12 12 12 11 11 12 12 14 15 15 14 15 14 12 10 8 5 5 3 2 6 10 15 22 35 21 12 8 8 7 8 6 7 12 9 9 10 6
6 6 6 5 6 6 3 2 3 2 3 3 3 3 2 3 4 4 5 5 5 6 7 7 8 7 7 8 9 8 10 10 10 10 10 10 11 12 14 13 12 12 13 14 14 15 15 13 14 14 10 6 5 1 5 13 14 12 12 13 23 32 31 22 13 9 8 5 7 11 10 10 10 9
6 6 7 6 6 7 5 3 3 2 3 2 2 2 2 2 3 4 5 5 5 5 6 7 7 7 8 8 8 8 8 9 10 11 10 10 10 11 12 11 11 11 11 12 12 12 11 12 13 13 12 11 11 13 14 11 11 10 10 10 11 21 29 31 32 26 16 9 5 9 10 10 10 11
6 6 7 7 7 6 5 4 3 3 3 2 2 2 1 2 3 4 5 5 5 5 6 6 6 7 7 8 7 6 7 9 9 9 10 10 10 9 10 10 9 9 9 8 9 9 10 11 12 12 11 11 11 11 12 11 10 11 11 11 11 10 13 23 30 31 28 28 24 16 8 2 5 8
7 7 7 7 7 7 6 5 4 4 4 2 2 2 3 1 2 3 3 4 4 5 5 5 6 6 7 7 8 7 7 7 7 8 9 9 9 8 8 9 9 10 9 9 8 10 9 10 10 11 12 13 11 12 13 12 11 10 10 11 12 13 12 11 14 21 25 26 30 31 33 31 24 20
7 7 7 7 7 7 6 5 5 4 4 3 2 2 4 3 3 3 3 3 4 5 4 4 5 6 6 6 7 8 8 7 8 8 7 8 8 8 8 8 8 9 10 9 8 9 9 8 9 9 11 11 10 11 11 11 11 10 12 14 14 13 12 12 16 17 17 18 22 28 27 27 26 27
Wind_Direction
71 68 65 68 59 41 32 23 26 12 7 8 3 12 15 355 344 345 336 330 332 335 348 334 331 340 330 326 326 326 327 325 330 329 327 325 324 324 327 327 326 326 324 324 324 327 330 331 330 331 332 332 334 329 319 302 267 227 214 211 211 210 209 208 200 205 197 198 197 191 191 190 186 188
74 72 67 61 56 32 27 22 2 7 5 4 7 7 359 1 14 341 333 318 324 324 328 327 323 330 327 323 320 322 322 322 330 327 324 323 318 321 325 321 321 322 322 323 324 329 329 325 322 324 326 325 329 329 323 315 295 256 226 216 212 208 206 201 197 205 202 197 192 191 189 188 181 185
75 73 68 53 52 27 25 17 16 12 11 7 5 2 3 354 3 327 327 321 319 327 315 320 318 317 321 323 320 320 318 324 330 325 321 319 320 325 320 320 319 319 320 320 326 329 323 319 317 318 318 322 327 326 323 319 315 289 244 219 209 205 199 208 203 199 203 198 195 191 190 188 183 183
79 77 68 55 52 32 33 28 21 18 13 11 3 357 352 337 324 305 314 317 316 324 310 312 310 318 320 322 321 320 320 325 325 321 320 317 320 318 317 316 317 317 318 321 325 322 318 316 317 318 320 323 323 322 318 315 312 309 270 224 213 207 199 204 200 200 199 198 197 192 190 189 185 184
83 84 83 59 46 46 46 26 18 16 9 0 353 339 338 330 319 320 316 316 311 305 303 305 315 317 319 321 320 317 320 319 317 315 310 313 316 315 313 313 315 311 313 318 316 313 313 314 317 320 319 318 317 315 311 309 310 305 291 245 220 214 207 204 197 200 198 199 196 193 190 190 186 185
91 94 79 54 51 46 52 26 20 3 359 355 347 339 339 327 322 317 315 308 306 311 316 313 310 308 314 310 314 315 317 315 316 315 317 310 306 312 312 311 305 307 310 310 310 307 309 310 313 313 312 311 310 307 306 307 308 304 294 268 234 219 211 207 199 199 200 199 196 195 189 189 187 185
106 71 67 65 68 48 48 15 360 358 352 344 342 329 322 317 308 306 302 302 303 305 308 309 311 312 315 311 313 314 310 310 314 313 315 314 310 305 303 301 303 304 306 305 303 303 302 305 305 306 306 306 303 301 303 305 307 308 298 278 250 226 211 208 200 199 197 197 196 194 190 188 186 185
102 96 79 76 85 73 56 359 358 349 341 331 326 317 309 298 295 291 292 288 287 294 303 310 308 309 311 307 307 308 304 308 313 310 307 306 302 300 297 300 303 304 302 300 298 297 300 300 300 299 299 299 298 297 299 301 309 315 310 291 264 240 222 210 203 196 200 196 195 193 190 184 186 185
115 110 132 160 152 85 50 347 355 335 335 317 311 310 303 299 290 293 291 290 284 288 295 298 296 299 296 297 302 304 308 308 301 303 304 307 305 302 296 295 291 288 295 294 295 297 297 297 294 293 294 295 293 293 295 304 309 309 306 296 274 249 232 218 206 197 199 197 194 191 188 186 188 186
138 136 159 165 161 130 81 342 326 324 316 309 308 305 304 299 297 294 295 290 290 287 285 293 301 301 303 306 301 305 306 309 310 304 298 301 302 301 301 290 287 292 297 305 302 296 294 291 290 289 291 292 291 289 301 308 304 302 299 293 281 257 235 223 214 202 198 196 192 189 190 188 189 188
143 153 151 164 177 174 206 309 314 302 307 305 305 301 299 300 301 301 297 299 298 294 292 293 289 296 297 299 307 307 301 298 298 306 311 308 306 294 294 302 300 295 294 280 276 279 284 288 289 288 287 287 290 297 302 298 294 292 291 287 279 262 241 227 219 206 198 196 193 190 191 189 188 191
162 157 141 162 202 213 225 253 297 285 293 297 302 302 301 304 306 303 303 303 302 300 298 298 303 302 303 304 292 297 304 304 301 305 311 307 311 308 303 298 302 304 294 296 294 279 281 279 279 280 285 288 287 287 287 286 287 290 287 283 274 262 244 229 219 211 201 194 195 194 191 190 188 190
157 136 159 180 222 242 282 274 288 297 295 299 303 305 310 308 309 305 303 303 302 300 302 303 302 305 307 305 309 314 318 320 317 315 309 298 301 299 299 299 294 288 295 294 285 284 277 279 277 282 280 277 280 279 279 283 285 283 277 277 273 261 248 231 222 214 207 197 195 194 191 191 189 189
33 123 160 193 217 263 268 275 297 305 309 311 309 305 312 311 309 305 307 306 304 305 308 309 312 312 309 310 310 311 312 311 310 310 310 306 302 296 296 288 272 290 285 288 291 278 260 272 277 269 272 271 272 274 275 270 274 276 272 271 271 261 253 238 224 217 212 203 197 193 191 187 188 188
118 111 123 250 271 269 286 294 296 310 317 319 318 316 314 311 308 309 309 301 303 308 306 307 309 306 306 306 308 311 313 313 313 311 308 305 304 303 306 307 302 166 304 299 289 286 268 261 279 279 269 271 270 266 265 270 273 272 269 267 265 257 247 244 230 222 215 209 198 193 189 189 189 190
117 156 212 271 272 275 279 300 315 318 319 319 320 320 318 316 311 303 294 298 306 304 309 310 307 306 303 306 311 313 315 314 311 306 303 302 300 300 296 293 294 310 310 291 293 290 288 277 271 276 270 264 264 266 268 268 267 267 265 263 261 255 246 238 235 223 217 212 204 193 191 191 189 189
131 188 227 274 289 283 302 318 318 316 314 320 322 320 321 319 316 312 308 300 289 291 298 298 302 303 305 308 309 311 310 312 309 310 308 304 297 291 288 290 294 295 301 289 283 285 286 286 277 272 272 266 267 269 267 265 263 262 261 259 256 252 244 235 228 225 216 213 212 198 192 190 188 189
160 207 211 270 307 321 325 319 319 318 319 324 322 323 323 319 314 313 309 307 302 299 293 297 298 299 302 300 302 306 311 314 311 310 306 305 299 295 292 290 289 286 282 277 282 277 280 276 272 273 275 268 267 264 263 263 262 259 259 258 256 248 242 233 225 220 216 212 211 209 196 191 192 189
320 270 261 266 299 320 326 318 317 327 333 325 320 320 320 318 313 310 311 309 309 304 299 294 292 294 296 294 297 304 308 305 303 302 302 302 298 292 287 283 277 276 263 265 264 271 283 282 274 272 275 274 267 261 261 258 258 257 256 256 254 250 242 232 223 217 214 211 209 205 206 194 188 189
328 275 274 294 315 322 320 315 322 331 337 324 322 322 318 316 312 309 299 301 299 297 297 297 297 298 295 292 294 297 303 306 304 301 296 295 292 294 294 294 295 287 281 261 263 271 278 274 269 277 274 275 276 271 264 262 259 257 255 253 251 248 244 237 224 216 211 209 207 204 203 201 191 190
324 331 309 287 297 312 313 318 326 329 340 323 323 320 318 314 316 314 315 313 309 307 305 303 302 301 299 295 294 300 303 306 311 310 304 300 302 298 299 298 299 297 299 277 259 267 274 273 270 276 274 271 271 272 268 263 258 256 254 252 250 245 241 235 225 215 211 208 206 204 201 203 203 192
337 329 334 330 322 320 317 322 326 326 336 325 317 320 322 327 327 321 324 323 317 312 309 308 307 306 303 300 301 304 310 314 314 311 309 307 305 300 299 302 304 300 292 281 256 257 261 279 268 273 276 275 256 260 261 260 257 255 255 252 248 243 235 231 221 213 210 207 205 204 200 198 200 196
347 329 322 317 319 318 319 324 327 327 333 323 317 317 324 327 326 324 327 323 323 325 323 318 317 314 311 309 310 314 315 315 313 311 304 302 303 300 300 301 304 302 292 282 329 291 278 280 272 274 293 290 280 257 262 255 251 242 244 251 248 237 228 222 216 211 209 206 205 203 200 195 187 190
330 324 319 320 324 329 329 329 327 326 327 330 318 331 333 328 325 323 321 321 324 321 321 316 318 315 314 313 316 319 320 317 315 313 308 303 301 298 300 299 299 296 296 292 280 270 275 270 276 263 258 282 293 276 257 297 287 289 275 262 253 228 215 214 212 209 204 205 205 202 195 192 184 186
322 321 320 313 320 331 331 327 325 325 324 332 337 337 333 319 311 318 324 323 324 321 321 321 320 319 320 320 321 321 319 318 320 317 310 307 302 303 302 300 295 288 285 283 277 265 274 277 276 282 263 246 262 283 281 276 274 268 265 247 245 205 172 192 191 198 206 204 203 201 197 192 185 183
331 317 306 310 316 325 327 324 323 325 328 334 348 334 329 330 334 330 319 319 322 324 325 324 324 324 325 325 324 321 322 324 324 321 316 315 314 306 302 301 301 300 294 296 294 274 271 269 260 268 261 253 263 254 281 280 265 267 264 253 229 195 169 161 168 177 173 188 202 200 196 190 188 191
305 303 305 303 319 327 323 325 327 325 329 342 339 335 339 337 330 329 330 326 328 328 327 328 329 327 327 330 329 328 331 330 329 327 323 322 321 315 312 307 299 294 292 296 294 287 278 276 250 244 253 247 257 261 254 272 282 288 311 295 247 153 150 149 169 167 164 172 188 189 190 189 191 195
297 308 314 313 314 317 326 330 327 322 330 341 340 341 339 339 333 332 331 333 331 328 331 333 330 330 328 327 328 332 333 328 327 325 322 324 325 321 318 314 304 297 299 305 308 294 293 288 278 255 247 244 243 248 257 256 261 278 288 5 2 143 153 162 157 144 155 163 159 168 173 186 193 193
300 298 300 310 324 330 331 331 327 328 338 343 341 339 340 341 340 336 333 332 334 336 337 332 329 329 329 327 322 322 326 323 323 329 330 330 329 325 325 318 306 312 322 327 331 334 321 303 288 271 249 244 246 248 254 267 288 287 303 307 287 183 154 154 149 148 155 159 167 167 178 178 181 189
307 315 330 334 338 336 334 333 325 325 329 338 344 341 341 340 338 336 333 334 340 338 333 333 331 327 324 328 327 324 325 332 338 339 337 336 340 342 339 337 344 344 354 355 357 345 325 311 309 262 229 233 237 261 273 288 277 280 218 223 202 80 112 135 139 145 148 164 168 174 179 180 180 178
341 327 329 321 309 297 305 317 319 327 344 352 348 339 336 334 334 333 335 337 337 335 333 329 327 325 327 324 330 337 338 339 340 345 341 338 339 340 342 337 345 357 356 356 2 351 334 341 5 19 64 74 36 23 331 334 340 337 311 162 133 155 138 100 131 142 158 158 161 165 169 173 176 182
316 315 321 328 347 352 356 346 344 349 345 345 344 336 334 333 330 326 324 329 332 332 328 323 327 329 332 336 337 337 340 339 338 345 348 345 341 345 343 355 2 354 357 360 359 354 354 360 23 34 51 49 43 2 359 40 24 359 4 20 44 49 74 135 129 126 136 130 136 159 167 172 174 180
317 335 340 351 343 351 338 331 334 341 346 339 338 338 340 336 335 338 347 346 340 333 334 336 334 333 334 334 339 339 340 343 342 345 348 351 350 345 354 2 357 359 355 356 356 357 357 356 355 49 55 54 52 46 31 26 7 2 9 20 35 43 16 49 108 126 118 119 143 155 166 177 181 179
282 305 327 312 323 318 328 321 330 336 328 334 340 336 338 338 338 342 337 340 336 332 332 333 336 337 336 338 341 342 342 339 343 346 351 350 350 354 357 356 353 347 353 357 1 357 354 358 353 340 343 67 61 52 40 32 19 358 12 24 22 28 19 27 57 107 133 148 147 144 160 164 171 175
255 301 326 311 318 303 296 296 314 315 321 326 334 332 333 336 340 337 337 335 332 332 336 339 338 338 341 339 340 342 343 342 341 343 348 349 354 1 357 357 354 356 359 2 1 354 355 358 360 9 34 19 40 49 44 33 20 5 8 25 18 21 14 14 35 41 50 55 97 125 97 96 136 137
300 296 286 298 293 292 307 305 303 307 311 313 325 329 342 339 336 339 334 329 329 333 340 339 339 341 341 340 340 341 344 345 344 347 351 356 357 359 1 5 4 3 4 6 2 359 360 6 8 17 27 27 39 32 18 17 27 12 14 13 13 13 11 20 41 35 35 43 40 99 105 124 104 112
287 306 294 276 281 276 274 296 300 302 292 296 316 327 332 332 329 328 324 324 340 341 338 338 340 340 341 342 341 342 342 348 348 351 354 355 357 358 1 4 7 5 9 9 5 3 4 9 13 22 29 37 40 40 25 356 23 25 17 16 17 14 4 19 47 47 25 43 56 43 66 79 68 55
281 301 307 299 275 264 261 273 294 315 314 304 308 322 325 320 322 324 327 347 342 339 339 342 339 343 342 344 348 346 345 347 351 355 355 355 359 3 4 3 3 6 6 8 10 9 7 12 19 19 27 37 40 31 25 14 26 18 23 24 21 10 14 36 50 53 51 49 61 48 60 64 60 71
262 285 290 288 275 251 259 281 263 291 302 298 311 319 312 323 328 332 341 340 337 339 337 341 345 339 343 345 344 345 345 350 352 352 353 355 357 0 2 2 5 4 7 11 10 12 12 19 18 17 20 22 28 20 15 34 30 11 27 30 28 25 21 26 50 52 64 74 76 75 69 75 71 75
286 273 267 269 266 246 240 258 266 259 288 294 288 281 295 318 322 328 336 337 338 336 339 338 338 342 345 345 345 343 347 353 349 347 351 352 354 357 2 358 7 4 10 13 15 13 15 16 13 12 12 12 350 331 282 58 66 36 37 27 33 40 25 18 33 47 53 29 85 88 82 70 77 38
281 290 281 262 260 246 231 246 247 256 282 305 296 282 276 291 319 325 317 325 332 341 341 337 340 343 339 340 344 347 346 348 350 349 350 349 352 354 359 3 8 8 15 16 15 15 15 9 3 3 13 16 11 19 56 42 35 26 29 30 32 39 44 45 42 33 39 360 63 84 83 86 98 89
259 267 273 271 250 239 218 237 243 241 275 292 292 260 279 296 296 305 322 330 335 341 343 340 339 338 339 341 341 344 349 348 347 348 349 351 350 353 359 7 9 2 12 18 16 16 6 9 11 16 18 23 30 43 46 40 38 30 30 29 28 38 42 47 50 50 48 25 31 80 86 90 86 77
260 251 262 259 243 234 222 229 229 225 251 260 280 246 230 295 314 331 331 330 327 338 343 335 337 337 339 338 340 337 348 353 346 344 348 354 355 352 353 356 3 5 7 9 15 13 14 17 19 21 24 31 32 43 49 43 39 39 36 32 31 34 40 46 51 50 46 50 56 60 48 44 131 110
248 250 250 246 231 225 229 226 232 224 228 227 247 223 197 222 295 295 294 303 315 319 319 335 335 342 338 336 334 343 358 347 342 350 349 347 351 353 353 349 357 6 9 7 8 16 14 21 22 22 32 31 26 36 40 40 43 39 42 45 40 38 38 40 48 51 50 41 48 56 59 63 64 68
244 238 243 235 225 228 225 226 225 227 223 222 222 222 217 208 239 270 282 283 295 301 321 339 338 338 337 339 348 345 336 341 350 349 351 354 354 355 357 357 358 5 11 5 8 12 14 23 22 26 40 35 29 38 40 44 43 43 40 44 44 43 39 41 52 52 54 50 39 53 59 62 65 70